Hourly Data Report for October 03, 2017

All times are specified in Local Standard Time (LST). Add 1 hour to adjust for Daylight Saving Time where and when it is observed.

MOOSONEE
ONTARIO

51°17'28.000" N
80°36'28.000" W
9.10 m
6075420
71398
YMO

Download Data

Hourly Data (October 2017)
Hourly Data Report for October 3, 2017
Temp Definition
°C
Dew Point Temp Definition
°C
Rel Hum Definition
%
Wind Dir Definition
10's deg

Wind Spd Definition
km/h
Visibility Definition
km
Stn Press Definition
kPa
Hmdx Definition


Wind Chill Definition


Weather Definition


TIME
00:00 Legend Double Dagger 16.3 9.0 62 19 21 16.1 101.76     LegendNANA
01:00 Legend Double Dagger 16.2 9.1 63 20 18 16.1 101.76     LegendNANA
02:00 Legend Double Dagger 16.4 9.4 63 20 21 16.1 101.74     LegendNANA
03:00 Legend Double Dagger 16.5 9.7 64 20 21 16.1 101.72     LegendNANA
04:00 Legend Double Dagger 16.5 10.0 65 21 21 16.1 101.68     LegendNANA
05:00 Legend Double Dagger 16.5 11.1 70 21 24 16.1 101.69     LegendNANA
06:00 Legend Double Dagger 15.7 11.5 76 21 26 16.1 101.69     LegendNANA
07:00 Legend Double Dagger 15.4 12.1 80 21 22 16.1 101.66     LegendNANA
08:00 Legend Double Dagger 14.4 14.3 99 21 13 16.1 101.59     Rain
09:00 Legend Double Dagger 14.9 14.9 100 20 21 16.1 101.53     Rain
10:00 Legend Double Dagger 14.8 14.5 98 21 21 16.1 101.47     LegendNANA
11:00 Legend Double Dagger 15.4 14.7 95 21 15 16.1 101.37     LegendNANA
12:00 Legend Double Dagger 17.0 14.9 87 20 11 16.1 101.28     LegendNANA
13:00 Legend Double Dagger 17.9 14.0 78 22 21 16.1 101.24     LegendNANA
14:00 Legend Double Dagger 18.3 14.2 77 24 18 16.1 101.22     LegendNANA
15:00 Legend Double Dagger 15.8 15.7 99 21 17 16.1 101.15     Rain
16:00 Legend Double Dagger 16.0 16.0 100 23 22 9.7 101.17     Moderate Rain,Fog
17:00 Legend Double Dagger 16.3 16.3 100 24 15 14.5 101.21     Rain
18:00 Legend Double Dagger 16.4 16.4 100 24 15 4.0 101.26     Rain,Fog
19:00 Legend Double Dagger 14.2 14.2 100 35 5 16.1 101.34     LegendNANA
20:00 Legend Double Dagger 13.9 13.9 100   0 16.1 101.34     LegendNANA
21:00 Legend Double Dagger 12.9 12.9 100 3 17 9.7 101.41     Rain,Fog
22:00 Legend Double Dagger 10.0 10.0 100 36 15 4.8 101.39     Rain,Fog
23:00 Legend Double Dagger 9.4 9.4 100 2 13 4.8 101.42     Rain,Fog

Notes on Data Quality.

Legend

  • E = Estimated
  • M = Missing
  • NA = Not Available
  • ‡ = Partner data that is not subject to review by the National Climate Archives
Date modified: